Witan Abimanyu

Olheiro-Chefe - Bhayangkara Presisi
22 Fev 2028
Terça-feira
Processo

Personalidade

Adaptabilidade (14) Ambição (20) Controvérsia (17) Lealdade (12) Pressão (10) Profissionalismo (9) Espírito Esportivo (18) Temperamento (6)

Perfil

Estilo de Treinamento Democrático
Licença Continental B
Determinação 3
Gestão de Pessoas 10
Motivação 3
Disciplina 4
Satisfação no Trabalho
100%
Fadiga
0%
Função Olheiro-Chefe
Salário 39.0K p/s
Contrato 14.03.2028

Desempenho

Comportamento Bom
Eficácia do Treinamento
33%
Desenvolvimento do Jogador
15%
Prevenção de Lesões
40%
Implementação Tática
45%

Eventos Recentes

Negociação de contrato iniciada agora
Avaliou um jogador agora
Avaliou um jogador 7d atrás
Negociação de contrato iniciada 7d atrás
Avaliou um jogador 7d atrás
Negociação de contrato iniciada 7d atrás
Observou uma partida 7d atrás
Negociação de contrato iniciada 7d atrás

Monitorando agora

151
Jogador Clube Status Habilidade Confiança Observado Última observação Último voto
Said Aliev Rotor Ativo 93 / 102 40% 2 21.02.2028 -
Cristhian Medina Dinamo Brest Ativo 87 / 88 40% 13 21.02.2028 -
Nikita Golub Belshina Ativo 96 / 66 40% 2 21.02.2028 -
Arseny Filev Chaika Ativo 93 / 91 40% 1 21.02.2028 -
Derrick Kyere Lokeren Ativo 110 / 92 40% 1 21.02.2028 -
Mohamed Konaté Nizhniy Novgorod Ativo 107 / 111 40% 1 21.02.2028 -
Luca Vido Union Brescia Ativo 110 / 121 40% 2 18.02.2028 -
Marcelo Orellana Vis Pesaro Ativo 110 / 130 40% 1 18.02.2028 -
Tommaso Gabellini Cittadella Ativo 102 / 101 40% 1 18.02.2028 -
Leon Sabua Fakel Ativo 94 / 111 40% 3 17.02.2028 -
Vlatko Stojanovski Mashal Ativo 102 / 89 40% 10 17.02.2028 -
Gonzalo Córdoba Adelaide United Ativo 116 / 126 40% 2 17.02.2028 -
Migran Ageyan Ufa Ativo 98 / 83 40% 2 16.02.2028 -
Sulayman Jallow Vis Pesaro Ativo 100 / 109 40% 1 16.02.2028 -
Alexandr Dolgov Amkar Ativo 98 / 88 40% 1 16.02.2028 -
Vladislav Fedosov Slutsk Ativo 88 / 78 40% 2 15.02.2028 -
Georgy Melkadze Akhmat Grozny Ativo 123 / 116 40% 3 15.02.2028 -
Ihor Horbach Zorya Ativo 111 / 115 40% 1 15.02.2028 -
Andrés Dieppa Metalurh Zaporizhzhia Ativo 108 / 115 40% 2 14.02.2028 -
Pierluca Luciani Ravenna Ativo 104 / 99 40% 2 14.02.2028 -
Kirill Moiseev Rostov Ativo 97 / 88 40% 2 14.02.2028 -
Kirill Kirilenko Dnepr Mogilev Ativo 83 / 113 40% 4 13.02.2028 -
Vladislav Lozhkin Dinamo Brest Ativo 105 / 103 40% 2 13.02.2028 -
Kirill Zinovich Dinamo Makhachkala Ativo 99 / 119 40% 2 13.02.2028 -
Oliver Jürgens Lida Ativo 95 / 78 40% 1 13.02.2028 -
Alessandro Galeandro Campobasso Ativo 109 / 81 40% 1 13.02.2028 -
Carlos Torres Orenburg Ativo 99 / 119 40% 3 11.02.2028 -
Daniil Konoplev Dinamo Bryansk Ativo 96 / 63 40% 2 11.02.2028 -
Vladislav Yakovlev Volga Ativo 103 / 86 40% 3 10.02.2028 -
Ognjen Bondžulić Mladost Lucani Ativo 102 / 130 40% 2 10.02.2028 -
Vladislav Sarveli Nizhniy Novgorod Ativo 124 / 91 40% 1 10.02.2028 -
Fernando Mimbacas Juventud Ativo 116 / 118 40% 1 09.02.2028 -
Ged Garner Newport County Ativo 104 / 82 40% 3 07.02.2028 -
Ricardo Dinanga Shrewsbury Town Ativo 83 / 93 40% 2 07.02.2028 -
Denis Mironov Shinnik Ativo 83 / 73 40% 2 05.02.2028 -
Charlie Brown Accrington Stanley Ativo 80 / 96 40% 3 04.02.2028 -
Georgy Gongadze Ufa Ativo 101 / 105 40% 1 04.02.2028 -
Sávio PSM Ativo 95 / 102 40% 9 31.01.2028 -
Alan Bonansea Colón Ativo 120 / 98 40% 8 31.01.2028 -
Rizky Pellu Maluku Utara United Rejeitado 77 / 84 65% 1 31.01.2028 Rejeitar
Patryk Szwedzik Ruch Ativo 105 / 109 40% 1 31.01.2028 -
Anderson Gutiérrez Chelyabinsk Ativo 109 / 88 40% 2 30.01.2028 -
Esteban da Silva Racing Ativo 105 / 112 40% 13 30.01.2028 -
Nermin Haljeta PSIM Ativo 100 / 102 40% 11 30.01.2028 -
Jonathan Filipe Spartak Kostroma Ativo 82 / 84 40% 2 29.01.2028 -
Lucas Carrizo Plaza Colonia Ativo 125 / 96 40% 14 29.01.2028 -
Sheriddin Boboev PSM Ativo 98 / 87 40% 7 29.01.2028 -
Jere Vrcić Birkirkara Ativo 109 / 110 40% 3 28.01.2028 -
Lucas Pedraza Defensores Unidos Ativo 115 / 89 40% 7 28.01.2028 -
Nicolás Heiz Maipú Ativo 111 / 105 40% 9 28.01.2028 -
Javier Martínez Almirante Brown Ativo 101 / 101 40% 8 28.01.2028 -
Kevin Isa Luna Central Norte Ativo 108 / 105 40% 3 28.01.2028 -
Gianluca Pugliese Güemes Ativo 110 / 128 40% 9 26.01.2028 -
Kianz Froese Semen Padang Ativo 111 / 109 40% 9 26.01.2028 -
Anton Fase PSIM Ativo 100 / 107 40% 2 25.01.2028 -
Mauricio Lacerda Miramar Misiones Ativo 89 / 91 40% 1 25.01.2028 -
Matías Samaniego Talleres Ativo 107 / 107 40% 9 24.01.2028 -
Karen Vardanyan Dinamo Minsk Ativo 89 / 86 40% 3 24.01.2028 -
Magomed Nasibov Pobeda Ativo 101 / 102 40% 1 24.01.2028 -
Santiago Apa All Boys Ativo 108 / 123 40% 7 22.01.2028 -
Marco Miori Alvarado Ativo 116 / 117 40% 8 22.01.2028 -
Juan Rocca Gimnasia y Tiro Ativo 104 / 98 40% 9 21.01.2028 -
Germán Cervera Alvarado Ativo 94 / 89 40% 5 21.01.2028 -
Kerfala Cissoko Rodina Ativo 113 / 120 40% 1 21.01.2028 -
Sebastián Cocimano Nueva Chicago Ativo 111 / 130 40% 2 19.01.2028 -
Maxim Kutovoy Salyut Ativo 76 / 103 40% 1 19.01.2028 -
Mihailo Perović Persebaya Ativo 91 / 89 40% 9 15.01.2028 -
Gustavo Viera Cerro Largo Ativo 92 / 115 40% 6 15.01.2028 -
Jhon Flor Sokol Ativo 109 / 117 40% 3 14.01.2028 -
Sudi Abdallah Persijap Ativo 102 / 79 40% 9 14.01.2028 -
Gustavo Rodriguez Valledupar Ativo 115 / 109 40% 4 14.01.2028 -
Santiago Rodríguez Gimnasia y Esgrima Ativo 123 / 101 40% 2 12.01.2028 -
Kodai Tanaka PSM Ativo 96 / 101 40% 9 09.01.2028 -
Eugenio Olivera Talleres Ativo 92 / 89 40% 7 09.01.2028 -
Mauro Valiente Estudiantes Ativo 120 / 123 40% 1 09.01.2028 -
Cristian Rivas Bogota Ativo 114 / 98 40% 10 08.01.2028 -
Iuri Tavares NK Varazdin Ativo 113 / 126 40% 1 08.01.2028 -
Iván Fernández Colegiales Ativo 108 / 85 40% 2 07.01.2028 -
Dejan Tumbas Persis Ativo 104 / 87 40% 6 04.01.2028 -
Elías Ayala Madryn Ativo 107 / 124 40% 8 03.01.2028 -
Ilja Zhbanov Akron Rejeitado 90 / 94 69% 1 01.01.2028 Rejeitar
Nikita Trapitsyn Zenit Rejeitado 74 / 75 69% 1 01.01.2028 Rejeitar
Diego Armando Díaz Unión de Santa Fe Ativo 124 / 108 40% 1 01.01.2028 -
Augusto Berrondo Tristán Suárez Ativo 100 / 124 40% 12 31.12.2027 -
Dalberto Arema Ativo 107 / 95 40% 2 30.12.2027 -
Naoufel Zerhouni Persib Ativo 104 / 123 40% 4 30.12.2027 -
Alan Sombra Defensores Unidos Rejeitado 99 / 103 40% 1 30.12.2027 Mais informações
Dylan Cabral Arsenal Ativo 96 / 93 40% 5 29.12.2027 -
Genaro Rossi San Martín SJ Ativo 101 / 99 40% 2 26.12.2027 -
Juan Mendoza Güemes Ativo 105 / 86 40% 10 26.12.2027 -
José Sequera Deportivo Tachira Ativo 82 / 95 40% 1 26.12.2027 -
Kimarni Smith Newport County Ativo 109 / 82 40% 1 26.12.2027 -
Jort van der Sande Bali United Ativo 115 / 109 40% 5 25.12.2027 -
Andrew Jung Persib Ativo 110 / 111 40% 4 25.12.2027 -
Renzo Reynaga Patronato Ativo 121 / 118 40% 4 21.12.2027 -
Abel Argañaraz Gimnasia y Esgrima Ativo 105 / 121 40% 7 18.12.2027 -
Alexey Antilevskiy Slavia Mozyr Ativo 106 / 91 40% 3 14.12.2027 -
Ezra Walian Persik Ativo 111 / 88 40% 5 08.12.2027 -
Juan David Rueda Alianza Petrolera Rejeitado 106 / 106 40% 1 04.12.2027 Mais informações
Steven Alfred Torpedo-BelAZ Ativo 103 / 83 40% 6 28.11.2027 -
Daouda Natama Minsk Ativo 106 / 80 40% 2 28.11.2027 -
Nicolás Ferreyra Gimnasia y Esgrima Ativo 112 / 106 40% 4 27.11.2027 -
Gustavo França Arema Ativo 103 / 111 40% 2 24.11.2027 -
Luca Franco Arsenal Ativo 118 / 116 40% 10 23.11.2027 -
Joaquín Avilés Cerrito Ativo 99 / 107 40% 1 09.11.2027 -
Shungu Dutiro FCI Tallinn Ativo 77 / 72 40% 2 02.11.2027 -
Nicolás Matamoros Santiago Wanderers Ativo 106 / 93 40% 2 25.10.2027 -
Jesús Amarilla Naftan Ativo 81 / 84 40% 4 24.10.2027 -
Federico Álvarez Atlanta Ativo 113 / 92 40% 2 19.10.2027 -
Nahuel Olmedo Real Cartagena Ativo 100 / 84 40% 1 11.10.2027 -
Evgeniy Malashevich Dinamo Brest Ativo 101 / 109 40% 2 06.10.2027 -
Owen Falconis Cerrito Ativo 94 / 112 40% 1 29.09.2027 -
Facundo Castelli Estudiantes Ativo 129 / 101 40% 1 25.09.2027 -
Alejandro Quintana Atlanta Ativo 106 / 98 40% 1 24.09.2027 -
Alexander Jeremejeff Persija Ativo 115 / 114 40% 3 19.09.2027 -
Eduardo Esterilla Deportes Quindio Ativo 86 / 85 40% 1 09.09.2027 -
Nahuel Marzochi Colon Ativo 85 / 101 40% 1 08.09.2027 -
Koldo Obieta Borneo Ativo 105 / 104 40% 2 07.09.2027 -
Mauro Schönfeld Morón Ativo 115 / 94 40% 1 07.09.2027 -
Angel Uñates Güemes Ativo 78 / 107 40% 2 28.08.2027 -
Nicolás Iachetti San Martín SJ Ativo 100 / 78 40% 1 27.08.2027 -
Boris Kopitović Bali United Ativo 82 / 81 40% 1 27.08.2027 -
Adrián Dalmau PSIM Ativo 114 / 95 40% 2 24.08.2027 -
Ezequiel Aguirre Defensores Ativo 108 / 112 40% 1 24.08.2027 -
Lucas Morelatto Persijap Ativo 103 / 109 40% 1 23.08.2027 -
Pablo Viudez Rentistas Ativo 99 / 94 40% 2 19.08.2027 -
Destiny Efosa Egharevba Picerno Ativo 94 / 116 40% 4 10.08.2027 -
Agustín Rodríguez Colon Ativo 94 / 96 40% 1 05.08.2027 -
Rustam Ismailov Obod Ativo 74 / 74 40% 1 01.08.2027 -
Valdeci Arema Ativo 103 / 96 40% 1 30.07.2027 -
Abdoulaye Diarra Bali United Ativo 104 / 108 40% 2 29.07.2027 -
Harvey Saunders Tranmere Rovers Ativo 86 / 73 40% 1 28.07.2027 -
Danilo Santacruz Madura United Ativo 105 / 109 40% 2 27.07.2027 -
Michael Mellon Stevenage Ativo 99 / 118 40% 1 27.07.2027 -
Mohcine Hassan PSBS Biak Ativo 80 / 89 40% 2 24.07.2027 -
Michel Babatunde Levadia Ativo 84 / 116 40% 1 23.07.2027 -
Sergio Castel Persik Rejeitado 123 / 104 40% 2 22.07.2027 Mais informações
Macula Birkirkara Ativo 72 / 87 40% 1 22.07.2027 -
Walterson Cittadella Ativo 99 / 99 40% 1 19.07.2027 -
Júnior Brandão Madura United Ativo 100 / 109 40% 1 17.07.2027 -
Kazaki Nakagawa Semen Padang Ativo 88 / 83 40% 1 16.07.2027 -
Andrey Okladnikov Yenisey Ativo 105 / 110 40% 1 12.07.2027 -
Amar Rahmanović Krylya Sovetov Ativo 106 / 101 40% 1 09.07.2027 -
Mikhail Gainov Dinamo Stavropol Ativo 92 / 67 40% 1 09.07.2027 -
Anton Betyuzhnov Dinamo Vologda Ativo 70 / 88 40% 1 08.07.2027 -
Amur Kalmykov Spartak Kostroma Ativo 99 / 94 40% 1 07.07.2027 -
Aleksej Golijanin Sokol Ativo 87 / 83 40% 1 25.05.2027 -
Alexandr Saplinov Volga Ativo 88 / 105 40% 3 21.05.2027 -
Yance Sayuri Maluku Utara United Ativo 84 / 84 30% 1 / 1m 12.05.2027 -
Dani Calvo Oviedo Ativo 132 / 138 40% 1 02.08.2026 -
Alejandro Ramos Melgar Ativo 109 / 114 40% 1 01.08.2026 -